Voltar ao catálogo

FREGAT DEB

AtivoLEO
NORAD 47336·DEBRIS·🇷🇺 Russia

Lançado Jul 18, 2011 de Baikonur Cosmodrome

Loading…

Próximas Passagens (próximas 24 horas)

TLE

AtualizadoSource: Space-Track

Época: Sep 13, 2026, 17:33 UTC

1 47336U 11037NT  26256.73172696  .00062032  00000-0  40308-1 0  9996
2 47336  51.6486  26.9116 0799547 170.1866 191.5732 13.03752298250443

Acompanhe FREGAT DEB em tempo real com AllMySat

Download on the App Store